Flag for Norway Weather past 2 weeks in Kristiansand, Norway

Now
54 °F

Overcast.


Feels Like: 51 °F
Forecast: 53 / 59 °F
Wind: 8 mph from Northeast

Location: Kristiansand / Kjevik

Current Time: Oct 1, 2014 at 12:03:39 AM

Latest Report: Sep 30, 2014 at 11:20 PM


Visibility: N/A

Pressure: 30.30 "Hg

Humidity: 82%

Dew point: 48 °F

Location of KristiansandLocation

Historic Weather in Kristiansand — Graph

°F

Kristiansand temperature yesterday

Maximum temperature yesterday: 59 °F (at 11:50 AM)
Minimum temperature yesterday: 45 °F (at 1:50 AM)
Average temperature yesterday: 53 °F

Past Weeks' High & Low Weather Summary

 TemperatureHumidityPressure
High68 °F (Sep 21, 3:20 PM)100% (Sep 19, 10:50 PM)30.33 "Hg (Sep 19, 10:50 PM)
Low39 °F (Sep 22, 6:50 AM)27% (Sep 22, 4:50 PM)29.62 "Hg (Sep 24, 7:20 PM)
Average55 °F77%30.01 "Hg
* Reported Sep 15 10:20 PM — Sep 30 10:50 PM, Kristiansand, Weather by CustomWeather, © 2014

Note: Actual official high and low records may vary slightly from our data, if they occured in-between our weather recording intervals... More about our weather records

Advertising

Kristiansand weather history for previous 24 hours

 ConditionsComfort  
Time TempWeatherWind HumidityBarometerVisibility
10:50 PM
Sep 30
54 °FClear.7 mph82%30.30 "Hg10 mi
10:20 PM54 °FClear.7 mph82%30.30 "Hg10 mi
9:50 PM54 °FClear.7 mph88%30.30 "Hg10 mi
9:20 PM54 °FClear.7 mph82%30.30 "Hg10 mi
8:50 PM54 °FClear.8 mph88%30.30 "Hg10 mi
8:20 PM54 °FClear.8 mph82%30.30 "Hg10 mi
7:50 PM55 °FSunny.8 mph77%30.27 "Hg10 mi
7:20 PM55 °FSunny.8 mph82%30.27 "Hg10 mi
6:50 PM55 °FSunny.8 mph77%30.27 "Hg10 mi
6:20 PM57 °FSunny.8 mph72%30.27 "Hg10 mi
5:50 PM57 °FSunny.12 mph67%30.27 "Hg10 mi
5:20 PM59 °FSunny.10 mph72%30.27 "Hg10 mi
4:50 PM59 °FPartly sunny.9 mph68%30.30 "HgN/A
4:20 PM59 °FPartly sunny.7 mph68%30.30 "HgN/A
3:50 PM59 °FScattered clouds.7 mph68%30.30 "HgN/A
3:20 PM59 °FScattered clouds.8 mph68%30.30 "HgN/A
2:50 PM59 °FPartly sunny.9 mph68%30.30 "HgN/A
2:20 PM59 °FPartly sunny.9 mph68%30.30 "HgN/A
1:50 PM59 °FPartly sunny.10 mph72%30.30 "HgN/A
1:20 PM59 °FScattered clouds.12 mph72%30.30 "HgN/A
12:50 PM59 °FScattered clouds.10 mph72%30.30 "HgN/A
12:20 PM59 °FScattered clouds.8 mph72%30.27 "HgN/A
11:50 AM59 °FScattered clouds.8 mph72%30.27 "HgN/A
11:20 AM57 °FScattered clouds.10 mph77%30.27 "HgN/A
10:50 AM57 °FScattered clouds.12 mph72%30.27 "HgN/A
10:20 AM55 °FScattered clouds.10 mph77%30.27 "HgN/A
9:50 AM52 °FScattered clouds.12 mph82%30.27 "HgN/A
9:20 AM52 °FScattered clouds.13 mph82%30.27 "HgN/A
8:50 AM50 °FScattered clouds.12 mph88%30.24 "HgN/A
8:20 AM50 °FPassing clouds.10 mph88%30.24 "HgN/A
7:50 AM50 °FPassing clouds.8 mph88%30.24 "HgN/A
7:20 AM50 °FPassing clouds.9 mph88%30.24 "HgN/A
6:50 AM50 °FPassing clouds.9 mph88%30.24 "HgN/A
6:20 AM48 °FPassing clouds.8 mph87%30.24 "HgN/A
5:50 AM48 °FPassing clouds.6 mph87%30.24 "HgN/A
5:20 AM46 °FOvercast.3 mph93%30.24 "HgN/A
4:50 AM45 °FPassing clouds.2 mph93%30.21 "HgN/A
4:20 AM46 °FPassing clouds.2 mph87%30.21 "HgN/A
3:50 AM45 °FPassing clouds.3 mph93%30.21 "HgN/A
3:20 AM45 °FQuite cool.3 mph93%30.21 "HgN/A
2:50 AM45 °FQuite cool.6 mph93%30.21 "HgN/A
2:20 AM45 °FQuite cool.5 mph93%30.21 "HgN/A
1:50 AM45 °FQuite cool.5 mph93%30.21 "HgN/A
1:20 AM46 °FCool.6 mph93%30.21 "HgN/A
12:50 AM46 °FCool.7 mph93%30.21 "HgN/A
12:20 AM46 °FCool.7 mph93%30.21 "HgN/A
Weather by CustomWeather, © 2014

See weather overviewHow to use our weather pages